STARLINK-32472, 61846

Orbit data source: Space-Track

STARLINK-32472, 61846 is a payload satellite owned by SpaceX/Seattle (US) in LEO that was launched on Thu, 07 Nov 2024 UTC via an FALCON 9 launch vehicle from the Air Force Eastern Test Range (AFETR). Payload-class satellites include a variety of spacecraft equipped with specific instruments for various scientific and technological missions. These include communications satellites like Starlink; space stations such as the ISS; scientific satellites like the Hubble; Earth observation satellites from companies like Planet Labs, Umbra, and HawkEye 360; GPS; miniature CubeSats for education and research; and military/defense satellites.

Loading next visibility...
Identifier
61846, 2024-202B
Orbit
LEO
Country
Flag of USUS
Related business
Manufacturer
SpaceX/Seattle
Mission
Operational Commercial Communications
Bus & Motor
STARLINK V2M, Unknown motor
Mass
730 kg wet, ~700 kg dry
Launch date (UTC)
2024-11-07 (1 year ago)
Launch vehicle
FALCON 9
Launch site
Air Force Eastern Test Range (AFETR)
Object type
Payload
Rocket body
Debris
Shape & HBR
Box + 2 Pan, 17.7 m
Radar Cross Section
33.884 m², Large (>1 m²)

Expand to show TLE details & history
Last TLE update: 19 hours ago

TLE from 19 hours ago
0 STARLINK-32472
1 61846U 24202B   25352.29829542  .00005367  00000-0  20468-3 0  9997
2 61846  42.9997 326.9411 0000294  77.2615 282.8270 15.27535663 63007
Epoch: 2025-12-18T07:09Z
TLE epoch observation values (Epoch: 2025-12-18T07:09:32.724Z)
Latitude
0.00003°
Longitude
132.39897°
Altitude
482.912 km
Speed
7.626 km/s
True Right ascension
21h 47m 45s
True Declination
0° 00' 00"
Sunlit
Object was in daylight at epoch
Visualization orbit readout
Latitude
Unknown
Longitude
Unknown
Altitude
Unknown
Speed
Unknown
Apparent Right ascension
Unknown
Apparent Declination
Unknown
Sunlit
N/A
Visualization observer readout
Local Sidereal Time
01:09:50
Azimuth
Unknown
Elevation
Unknown
Doppler factor
Unknown
Orbital elements
Apogee altitude
485.329 km
Perigee altitude
484.925 km
Semi-major axis
6,863.264 km
Eccentricity
0.00003
Inclination
42.9997°
RAAN
326.9411°
Arg. of periapsis
77.2615°
True anomaly
282.82372°
Mean anomaly
282.827°
Eccentric anomaly
282.82536°
Mean motion
3.81722 °/min
Orbital period
94.31 mins
BSTAR
0.00020468
Loading maneuver chart data...
Computing Atmospheric mass density...
Loading historical data...
Loading historical data...
Loading historical data...
Loading historical data...
Loading historical data...
Loading historical data...
Loading historical data...

Documentation

Showing up to 5 results
|